Location: Old Broadwell Mill Observatory
(33.8015°N, 85.8137°W)
Time: 05:21:11
(UTC-05:00)

Daily predictions for brighter satellites

Satellite Brightness Start Highest point End
(mag) Time Altitude Azimuth Time Altitude Azimuth Time Altitude Azimuth
SL-16 R/B 3.7 03:39:10 10° N 03:44:18 34° ENE 03:49:23 10° SE
Cosmos 2227 Rocket 4.2 03:53:25 18° N 03:53:25 18° N 03:54:56 10° N
Okean O Rocket 4.1 03:49:08 10° NNE 03:50:21 18° NE 03:50:21 18° NE
Cosmos 2297 Rocket 3.8 04:01:19 24° N 04:01:19 24° N 04:03:37 10° N
Lacrosse 5 4.2 04:12:13 13° N 04:12:13 13° N 04:13:17 10° N
Cosmos 2100 Rocket 4.3 04:10:17 10° N 04:16:30 64° E 04:22:45 10° SSE
GOES 2 Rocket 4.3 04:24:16 44° SSE 04:24:16 44° SSE 04:29:40 10° ESE
Cosmos 2061 Rocket 4.3 04:19:15 10° N 04:25:35 68° E 04:31:56 10° SSE
OAO 2 Rocket 3.5 04:26:15 72° E 04:26:15 72° E 04:31:04 10° E
ADEOS II 3.3 04:25:12 10° NNE 04:30:07 39° E 04:35:01 10° SSE
Cosmos 990 Rocket 4.2 04:30:48 55° SSE 04:31:50 70° ESE 04:37:03 10° NNE
CZ-4B DEB 4.2 04:27:06 10° NNE 04:32:37 83° ESE 04:34:08 50° S
Cosmos 1000 Rocket 4.4 04:34:54 37° SSW 04:37:36 82° W 04:43:57 10° N
Genesis I 4.1 04:40:15 45° NNE 04:40:15 45° NNE 04:43:06 10° NNE
USA 215 3.1 04:38:34 10° SE 04:45:06 72° SW 04:48:46 28° NW
ADEOS Rocket 3.1 04:38:50 10° NNE 04:45:43 87° E 04:51:30 12° SSW
Cosmos 2016 Rocket 4.1 04:40:04 10° N 04:46:24 74° E 04:52:36 10° SSE
Meteor 2-15 4.3 04:44:30 11° S 04:50:21 86° W 04:56:26 10° N
Cosmos 967 Rocket 4.5 04:48:53 47° WSW 04:50:37 64° WNW 04:56:59 10° NNE
Cosmos 2173 Rocket 3.8 04:45:07 10° N 04:51:12 72° W 04:57:20 10° S
Thor Agena Rocket 3.8 04:46:53 10° SSE 04:52:08 71° ENE 04:57:24 10° N
Cosmos 1515 4.2 04:50:38 28° SSE 04:52:28 59° E 04:56:15 10° NNE
Tiangong 1 3.5 04:52:48 17° NNE 04:52:48 17° NNE 04:54:38 10° NE
PAYLOAD B 4.3 04:48:35 10° N 04:53:56 54° WNW 04:54:55 47° WSW
Cosmos 1459 Rocket 3.9 04:48:20 10° NNW 04:54:37 66° W 05:00:48 10° S
ATLAS 5 CENTAUR R/B 4.1 04:59:18 17° SSW 04:59:18 17° SSW 05:01:09 10° SSW
CENTAUR R/B 3.3 04:47:53 10° NNW 04:55:53 76° ENE 05:04:15 10° SE
FALCON 9 R/B 3.2 04:54:19 36° SW 04:57:20 73° SSE 05:18:26 10° ENE
Cosmos 1340 4.4 04:55:53 10° SSE 04:59:18 34° E 05:02:45 10° NNE
Meteor 1-31 Rocket 4.3 04:57:54 10° NNE 05:01:33 36° E 05:05:12 10° SSE
Cosmos 2123 Rocket 3.9 04:56:41 10° S 05:02:50 87° E 05:09:03 10° N
Okean-O 2.6 04:59:38 10° NNE 05:04:05 82° ESE 05:08:30 10° S
CZ-3A R/B 3.7 04:59:45 23° SW 05:04:11 32° S 05:07:50 10° SE
NOSS 2-2 (D) 4.0 05:04:35 40° NW 05:04:35 40° NW 05:08:44 10° NNE
CZ-4B R/B 3.5 05:01:44 10° N 05:06:52 43° WNW 05:08:27 35° WSW
Cosmos 1626 Rocket 3.4 05:04:57 21° SSW 05:07:51 73° W 05:12:12 10° N
Meteor 1-15 Rocket 4.4 05:05:01 10° NNW 05:10:20 47° W 05:15:44 10° SSW
Meteor 2-15 Rocket 4.3 05:05:35 10° SSW 05:11:36 68° W 05:17:39 10° N
Meteor PRIRODA 3.6 05:08:21 10° NNE 05:12:05 87° ESE 05:15:43 10° SSW
Cosmos 2227 4.4 05:10:25 29° SW 05:13:09 52° WNW 05:18:45 10° N
NOSS 5 (C) 4.3 05:14:23 53° WSW 05:14:53 62° WNW 05:18:02 10° NNE
Cosmos 1125 Rocket 3.8 05:10:44 10° S 05:15:52 68° ESE 05:21:02 10° NNE
Cosmos 1937 Rocket 4.3 05:16:21 30° W 05:16:56 30° WNW 05:21:34 10° N
NOSS 2-2 (C) 4.5 05:19:33 28° WNW 05:19:59 28° NW 05:23:57 10° N
Delta 2 Rocket 3.7 05:20:43 35° WSW 05:21:34 40° SSW 05:25:01 10° SE
Cosmos 1864 Rocket 4.5 05:16:05 10° N 05:22:28 86° W 05:28:49 10° S
Cosmos 2098 Rocket 3.6 05:22:50 10° NNW 05:27:13 49° W 05:32:45 10° SSW
Cosmos 972 Rocket 4.4 05:22:27 12° SW 05:27:22 52° WNW 05:33:22 10° N
SL-16 R/B 3.0 05:23:30 10° NW 05:28:12 27° WSW 05:32:54 10° SSW
Okean O Rocket 3.6 05:26:52 10° NW 05:27:49 13° NW 05:27:49 13° NW
CZ-4B R/B 3.6 05:26:40 10° NNE 05:30:28 86° E 05:34:08 10° S
DELTA 2 R/B (1) 4.3 05:27:00 19° WNW 05:30:47 46° N 05:36:09 10° ENE
Cosmos 1602 Rocket 4.1 05:29:30 14° SW 05:32:53 36° W 05:36:57 10° NNW
Feng Yun 1-1 Rocket 4.4 05:28:21 10° N 05:33:58 60° WNW 05:39:43 10° SSW
Cosmos 1066 Rocket 4.2 05:31:00 10° SSW 05:36:37 76° W 05:42:25 10° N
PSLV R/B 4.4 05:35:18 10° NNW 05:38:58 28° WNW 05:41:42 15° WSW
Cosmos 2084 Rocket 4.3 05:38:18 10° NNW 05:42:07 48° ENE 05:46:07 10° SE
Cosmos 2228 4.2 05:39:25 10° NW 05:42:46 22° W 05:46:06 10° SW
NOAA 6 4.0 05:40:39 10° NNE 05:45:51 86° WNW 05:51:02 10° SSW
USA 129 1.0 05:45:17 10° S 05:47:08 65° W 05:48:47 10° NNW
MOS 1 Rocket 3.6 05:43:38 10° N 05:48:28 53° WNW 05:53:33 10° SSW
Cosmos 2233 Rocket 3.9 05:46:04 10° N 05:52:20 80° W 05:58:29 10° S
SL-24 R/B 3.7 05:50:27 10° N 05:54:27 80° WNW 05:58:08 10° SSW
Cosmos 1812 Rocket 4.2 05:58:12 10° NNW 06:02:14 34° W 06:06:15 10° SSW
COBE Rocket 4.4 05:58:26 10° N 06:02:41 35° WNW 06:06:53 10° SW
BREEZE-M DEB (TANK) 2.9 05:59:24 10° NW 06:07:54 85° NE 06:10:51 10° SE
Cosmos 1943 3.2 06:02:46 10° NNW 06:08:25 90° WSW 06:14:03 10° SSE
ADEOS II 3.3 06:05:39 10° NNW 06:09:32 21° WNW 06:13:23 10° WSW
OAO 2 Rocket 3.5 06:05:25 10° W 06:10:43 78° N 06:16:05 10° E
AVUM R/B 2.6 06:09:26 10° NW 06:11:36 41° WSW 06:13:39 10° S
Intercosmos 25 Rocket 4.3 06:08:08 10° NNW 06:12:14 48° W 06:18:39 10° SSW
Cosmos 2263 Rocket 2.2 06:07:49 10° SSW 06:13:17 58° WNW 06:18:47 10° NNE
CZ-4 R/B 3.7 06:10:19 10° NE 06:13:54 31° E 06:17:33 10° SSE
Cosmos 1603 4.5 06:11:16 10° NW 06:16:09 30° WSW 06:21:00 10° SSW
